355  
ASUS43 KGLD 230708  
RWRGLD  
 
GOODLAND FORECAST AREA HOURLY WEATHER ROUNDUP  
NATIONAL WEATHER SERVICE GOODLAND KS  
100 AM MDT SAT SEP 23 2017  
   
..OFFICIAL OBSERVATIONS
 
 
 
CITY SKY/WX TMP DP RH WIND PRES REMARKS
 
GOODLAND KS CLEAR 72 61 68 S17 29.83S  
HILL CITY KS PTCLDY 77 66 68 S16G25 29.84R  
IMPERIAL NEB CLOUDY 60 50 69 N15 29.85R  
MCCOOK NEB PTCLDY 77 64 64 S20G31 29.79S  
AKRON CO CLOUDY 52 42 69 N18G26 29.90R  
BURLINGTON CO MOCLDY 73 60 63 SW16 29.87R  
LIMON CO N/A N/A N/A N/A MISG 29.92F  

 
   
..UNOFFICIAL OBSERVATIONS
 
 
 
CITY SKY/WX TMP DP RH WIND PRES REMARKS
 
LENORA KS N/A 75 32 20 MISG N/A  
NORTON KS CLEAR 75 59 57 S14G21 29.82S  
SHARON SPRINGS N/A 71 62 73 S17G25 N/A  
KIT CARSON CO N/A 70 60 71 MISG N/A  
YUMA CO FAIR 54 34 47 N13G20 29.88R  

 
 
 
CLICK HERE TO GO TO PREVIOUS BULLETINS.

The Nexlab KS Page
The Nexlab CO Page
The Nexlab NE Page Main Text Page